Location: Unspecified
(43.3830°N, 0.0000°E)
Time: 20:38:20
(UTC+00:00)

X-37B - Visible Passes

Search period start: 30 November 2020 00:00
Search period end: 10 December 2020 00:00
Orbit: 384 x 390 km, 45.0° (Epoch: 26 November)

Date Brightness Start Highest point End Pass type
(mag) Time Alt. Az. Time Alt. Az. Time Alt. Az.
30 Nov 1.1 18:22:44 10° W 18:25:25 59° W 18:25:25 59° W visible
01 Dec 0.6 17:24:10 10° WSW 17:27:19 78° SSE 17:29:28 19° ENE visible
01 Dec 3.6 19:00:54 10° W 19:01:44 17° WNW 19:01:44 17° WNW visible
02 Dec 0.6 18:02:16 10° W 18:05:25 65° N 18:05:47 58° NE visible
03 Dec 0.6 17:03:38 10° W 17:06:48 78° NNW 17:09:50 11° ENE visible
03 Dec 2.5 18:40:24 10° WNW 18:42:06 28° WNW 18:42:06 28° WNW visible
04 Dec 0.7 17:41:48 10° W 17:44:57 61° N 17:46:11 32° ENE visible
05 Dec 1.0 18:19:53 10° WNW 18:22:35 60° WNW 18:22:35 60° WNW visible
06 Dec 0.6 17:21:19 10° WNW 17:24:28 67° N 17:26:47 17° E visible
06 Dec 3.4 18:57:59 10° W 18:59:04 19° W 18:59:04 19° W visible
07 Dec 0.7 17:59:22 10° WNW 18:02:33 72° SSW 18:03:22 44° SE visible
08 Dec 0.5 17:00:47 10° WNW 17:03:58 82° NNE 17:07:09 10° E visible
08 Dec 2.5 18:37:38 10° W 18:40:07 27° SW 18:40:07 27° SW visible
09 Dec 1.6 17:38:54 10° W 17:41:57 45° SSW 17:44:45 12° SE visible
